iso_date,epoch_date,Year,Hour,Min,DOY,POS_DOY,Lat,Lon,BP,Ts,Ta,has_bp,has_ts,has_ta,BuoyID,Buoy_Type,Buoy_Owner,Logistics,Hemisphere
2014-01-10T07:59:31Z,1389340771,2014,8,0,10.333,10.25,72.0526,34.7558,995.7,3.92,-999.0,yes,yes,no,300234011471050,BD2GI,AOML,SKOGAFOSS,North
2014-01-10T09:00:00Z,1389344400,2014,9,0,10.375,10.375,72.0592,34.7882,995.8,3.95,-999.0,yes,yes,no,300234011471050,BD2GI,AOML,SKOGAFOSS,North
2014-01-10T10:00:28Z,1389348029,2014,10,0,10.417,10.375,72.0592,34.7882,995.2,3.92,-999.0,yes,yes,no,300234011471050,BD2GI,AOML,SKOGAFOSS,North
2014-01-10T10:59:31Z,1389351571,2014,11,0,10.458,10.375,72.0592,34.7882,995.6,3.9,-999.0,yes,yes,no,300234011471050,BD2GI,AOML,SKOGAFOSS,North
2014-01-10T12:00:00Z,1389355200,2014,12,0,10.5,10.5,72.0644,34.8184,994.2,3.84,-999.0,yes,yes,no,300234011471050,BD2GI,AOML,SKOGAFOSS,North
2014-01-10T13:00:28Z,1389358829,2014,13,0,10.542,10.5,72.0644,34.8184,994.9,3.79,-999.0,yes,yes,no,300234011471050,BD2GI,AOML,SKOGAFOSS,North
2014-01-10T13:59:31Z,1389362371,2014,14,0,10.583,10.5,72.0644,34.8184,993.3,3.76,-999.0,yes,yes,no,300234011471050,BD2GI,AOML,SKOGAFOSS,North
2014-01-10T15:00:00Z,1389366000,2014,15,0,10.625,10.625,72.0534,34.8438,993.5,3.82,-999.0,yes,yes,no,300234011471050,BD2GI,AOML,SKOGAFOSS,North
2014-01-10T16:00:28Z,1389369629,2014,16,0,10.667,10.625,72.0534,34.8438,994.4,3.83,-999.0,yes,yes,no,300234011471050,BD2GI,AOML,SKOGAFOSS,North
2014-01-10T16:59:31Z,1389373171,2014,17,0,10.708,10.625,72.0534,34.8438,993.8,3.8,-999.0,yes,yes,no,300234011471050,BD2GI,AOML,SKOGAFOSS,North
2014-01-10T18:00:00Z,1389376800,2014,18,0,10.75,10.75,72.0496,34.853,995.4,3.86,-999.0,yes,yes,no,300234011471050,BD2GI,AOML,SKOGAFOSS,North
2014-01-10T19:00:28Z,1389380429,2014,19,0,10.792,10.75,72.0496,34.853,993.8,3.85,-999.0,yes,yes,no,300234011471050,BD2GI,AOML,SKOGAFOSS,North
2014-01-10T19:59:31Z,1389383971,2014,20,0,10.833,10.75,72.0496,34.853,994.2,3.8,-999.0,yes,yes,no,300234011471050,BD2GI,AOML,SKOGAFOSS,North
2014-01-10T21:00:00Z,1389387600,2014,21,0,10.875,10.875,72.0492,34.8572,995.8,3.76,-999.0,yes,yes,no,300234011471050,BD2GI,AOML,SKOGAFOSS,North
2014-01-10T22:00:28Z,1389391229,2014,22,0,10.917,10.875,72.0492,34.8572,995.8,3.76,-999.0,yes,yes,no,300234011471050,BD2GI,AOML,SKOGAFOSS,North
2014-01-10T22:59:31Z,1389394771,2014,23,0,10.958,10.875,72.0492,34.8572,995.3,3.76,-999.0,yes,yes,no,300234011471050,BD2GI,AOML,SKOGAFOSS,North
2014-01-11T00:00:00Z,1389398400,2014,0,0,11.0,11.0,72.0346,34.8996,995.8,3.94,-999.0,yes,yes,no,300234011471050,BD2GI,AOML,SKOGAFOSS,North
2014-01-11T01:00:28Z,1389402029,2014,1,0,11.042,11.0,72.0346,34.8996,996.3,4.08,-999.0,yes,yes,no,300234011471050,BD2GI,AOML,SKOGAFOSS,North
2014-01-11T01:59:31Z,1389405571,2014,2,0,11.083,11.0,72.0346,34.8996,995.8,4.15,-999.0,yes,yes,no,300234011471050,BD2GI,AOML,SKOGAFOSS,North
2014-01-11T03:00:00Z,1389409200,2014,3,0,11.125,11.125,72.0244,34.9434,995.4,4.15,-999.0,yes,yes,no,300234011471050,BD2GI,AOML,SKOGAFOSS,North
2014-01-11T04:00:28Z,1389412829,2014,4,0,11.167,11.125,72.0244,34.9434,996.5,4.18,-999.0,yes,yes,no,300234011471050,BD2GI,AOML,SKOGAFOSS,North
2014-01-11T04:59:31Z,1389416371,2014,5,0,11.208,11.125,72.0244,34.9434,996.6,4.19,-999.0,yes,yes,no,300234011471050,BD2GI,AOML,SKOGAFOSS,North
2014-01-11T06:00:00Z,1389420000,2014,6,0,11.25,11.25,72.0242,34.9606,996.1,4.16,-999.0,yes,yes,no,300234011471050,BD2GI,AOML,SKOGAFOSS,North
2014-01-11T07:00:28Z,1389423629,2014,7,0,11.292,11.25,72.0242,34.9606,995.4,4.14,-999.0,yes,yes,no,300234011471050,BD2GI,AOML,SKOGAFOSS,North
2014-01-11T07:59:31Z,1389427171,2014,8,0,11.333,11.25,72.0242,34.9606,996.0,4.04,-999.0,yes,yes,no,300234011471050,BD2GI,AOML,SKOGAFOSS,North
2014-01-11T09:00:00Z,1389430800,2014,9,0,11.375,11.375,72.0356,34.9584,996.3,4.0,-999.0,yes,yes,no,300234011471050,BD2GI,AOML,SKOGAFOSS,North
2014-01-11T10:00:28Z,1389434429,2014,10,0,11.417,11.375,72.0356,34.9584,996.2,4.01,-999.0,yes,yes,no,300234011471050,BD2GI,AOML,SKOGAFOSS,North
2014-01-11T10:59:31Z,1389437971,2014,11,0,11.458,11.375,72.0356,34.9584,996.6,3.83,-999.0,yes,yes,no,300234011471050,BD2GI,AOML,SKOGAFOSS,North
2014-01-11T12:00:00Z,1389441600,2014,12,0,11.5,11.5,72.0424,34.9926,996.7,3.89,-999.0,yes,yes,no,300234011471050,BD2GI,AOML,SKOGAFOSS,North
2014-01-11T13:00:28Z,1389445229,2014,13,0,11.542,11.5,72.0424,34.9926,996.2,3.84,-999.0,yes,yes,no,300234011471050,BD2GI,AOML,SKOGAFOSS,North
2014-01-11T13:59:31Z,1389448771,2014,14,0,11.583,11.5,72.0424,34.9926,996.3,3.83,-999.0,yes,yes,no,300234011471050,BD2GI,AOML,SKOGAFOSS,North
2014-01-11T15:00:00Z,1389452400,2014,15,0,11.625,11.625,72.0422,35.0228,996.7,3.81,-999.0,yes,yes,no,300234011471050,BD2GI,AOML,SKOGAFOSS,North
2014-01-11T16:00:28Z,1389456029,2014,16,0,11.667,11.625,72.0422,35.0228,996.7,3.83,-999.0,yes,yes,no,300234011471050,BD2GI,AOML,SKOGAFOSS,North
2014-01-11T16:59:31Z,1389459571,2014,17,0,11.708,11.625,72.0422,35.0228,996.6,3.91,-999.0,yes,yes,no,300234011471050,BD2GI,AOML,SKOGAFOSS,North
2014-01-11T18:00:00Z,1389463200,2014,18,0,11.75,11.75,72.0396,35.0236,996.6,4.03,-999.0,yes,yes,no,300234011471050,BD2GI,AOML,SKOGAFOSS,North
2014-01-11T19:00:28Z,1389466829,2014,19,0,11.792,11.75,72.0396,35.0236,998.3,4.15,-999.0,yes,yes,no,300234011471050,BD2GI,AOML,SKOGAFOSS,North
2014-01-11T19:59:31Z,1389470371,2014,20,0,11.833,11.75,72.0396,35.0236,999.0,4.15,-999.0,yes,yes,no,300234011471050,BD2GI,AOML,SKOGAFOSS,North
2014-01-11T21:00:00Z,1389474000,2014,21,0,11.875,11.875,72.0492,35.0354,998.8,4.17,-999.0,yes,yes,no,300234011471050,BD2GI,AOML,SKOGAFOSS,North
2014-01-11T22:00:28Z,1389477629,2014,22,0,11.917,11.875,72.0492,35.0354,999.3,4.16,-999.0,yes,yes,no,300234011471050,BD2GI,AOML,SKOGAFOSS,North
2014-01-11T22:59:31Z,1389481171,2014,23,0,11.958,11.875,72.0492,35.0354,999.3,4.04,-999.0,yes,yes,no,300234011471050,BD2GI,AOML,SKOGAFOSS,North
2014-01-12T00:00:00Z,1389484800,2014,0,0,12.0,12.0,72.0666,35.0786,999.0,3.9,-999.0,yes,yes,no,300234011471050,BD2GI,AOML,SKOGAFOSS,North
2014-01-12T01:00:28Z,1389488429,2014,1,0,12.042,12.0,72.0666,35.0786,999.4,3.83,-999.0,yes,yes,no,300234011471050,BD2GI,AOML,SKOGAFOSS,North
2014-01-12T01:59:31Z,1389491971,2014,2,0,12.083,12.0,72.0666,35.0786,999.1,3.84,-999.0,yes,yes,no,300234011471050,BD2GI,AOML,SKOGAFOSS,North
2014-01-12T03:00:00Z,1389495600,2014,3,0,12.125,12.125,72.092,35.0762,999.5,3.83,-999.0,yes,yes,no,300234011471050,BD2GI,AOML,SKOGAFOSS,North
2014-01-12T04:00:28Z,1389499229,2014,4,0,12.167,12.125,72.092,35.0762,998.4,3.82,-999.0,yes,yes,no,300234011471050,BD2GI,AOML,SKOGAFOSS,North
2014-01-12T04:59:31Z,1389502771,2014,5,0,12.208,12.125,72.092,35.0762,997.5,3.94,-999.0,yes,yes,no,300234011471050,BD2GI,AOML,SKOGAFOSS,North
2014-01-12T06:00:00Z,1389506400,2014,6,0,12.25,12.25,72.1256,34.9986,997.6,4.09,-999.0,yes,yes,no,300234011471050,BD2GI,AOML,SKOGAFOSS,North
2014-01-12T07:00:28Z,1389510029,2014,7,0,12.292,12.25,72.1256,34.9986,997.8,4.24,-999.0,yes,yes,no,300234011471050,BD2GI,AOML,SKOGAFOSS,North
2014-01-12T07:59:31Z,1389513571,2014,8,0,12.333,12.25,72.1256,34.9986,996.1,4.4,-999.0,yes,yes,no,300234011471050,BD2GI,AOML,SKOGAFOSS,North
2014-01-12T09:00:00Z,1389517200,2014,9,0,12.375,12.375,72.1466,34.867,996.3,4.3,-999.0,yes,yes,no,300234011471050,BD2GI,AOML,SKOGAFOSS,North
2014-01-12T10:00:28Z,1389520829,2014,10,0,12.417,12.375,72.1466,34.867,997.1,4.75,-999.0,yes,yes,no,300234011471050,BD2GI,AOML,SKOGAFOSS,North
2014-01-12T10:59:31Z,1389524371,2014,11,0,12.458,12.375,72.1466,34.867,995.5,4.69,-999.0,yes,yes,no,300234011471050,BD2GI,AOML,SKOGAFOSS,North
2014-01-12T12:00:00Z,1389528000,2014,12,0,12.5,12.5,72.1384,34.765,996.7,4.65,-999.0,yes,yes,no,300234011471050,BD2GI,AOML,SKOGAFOSS,North
2014-01-12T13:00:28Z,1389531629,2014,13,0,12.542,12.5,72.1384,34.765,996.7,4.55,-999.0,yes,yes,no,300234011471050,BD2GI,AOML,SKOGAFOSS,North
2014-01-12T13:59:31Z,1389535171,2014,14,0,12.583,12.5,72.1384,34.765,997.1,4.42,-999.0,yes,yes,no,300234011471050,BD2GI,AOML,SKOGAFOSS,North
2014-01-12T15:00:00Z,1389538800,2014,15,0,12.625,12.625,72.114,34.7058,996.2,4.48,-999.0,yes,yes,no,300234011471050,BD2GI,AOML,SKOGAFOSS,North
2014-01-12T16:00:28Z,1389542429,2014,16,0,12.667,12.625,72.114,34.7058,996.7,4.41,-999.0,yes,yes,no,300234011471050,BD2GI,AOML,SKOGAFOSS,North
2014-01-12T16:59:31Z,1389545971,2014,17,0,12.708,12.625,72.114,34.7058,997.6,4.41,-999.0,yes,yes,no,300234011471050,BD2GI,AOML,SKOGAFOSS,North
2014-01-12T18:00:00Z,1389549600,2014,18,0,12.75,12.75,72.0984,34.6314,996.7,4.45,-999.0,yes,yes,no,300234011471050,BD2GI,AOML,SKOGAFOSS,North
2014-01-12T19:00:28Z,1389553229,2014,19,0,12.792,12.75,72.0984,34.6314,996.6,4.53,-999.0,yes,yes,no,300234011471050,BD2GI,AOML,SKOGAFOSS,North
2014-01-12T19:59:31Z,1389556771,2014,20,0,12.833,12.75,72.0984,34.6314,998.5,4.56,-999.0,yes,yes,no,300234011471050,BD2GI,AOML,SKOGAFOSS,North
2014-01-12T21:00:00Z,1389560400,2014,21,0,12.875,12.875,72.0922,34.5726,998.9,4.6,-999.0,yes,yes,no,300234011471050,BD2GI,AOML,SKOGAFOSS,North
2014-01-12T22:00:28Z,1389564029,2014,22,0,12.917,12.875,72.0922,34.5726,999.8,4.61,-999.0,yes,yes,no,300234011471050,BD2GI,AOML,SKOGAFOSS,North
2014-01-12T22:59:31Z,1389567571,2014,23,0,12.958,12.875,72.0922,34.5726,999.1,4.62,-999.0,yes,yes,no,300234011471050,BD2GI,AOML,SKOGAFOSS,North
2014-01-13T00:00:00Z,1389571200,2014,0,0,13.0,13.0,72.0836,34.5456,998.3,4.64,-999.0,yes,yes,no,300234011471050,BD2GI,AOML,SKOGAFOSS,North
2014-01-13T01:00:28Z,1389574829,2014,1,0,13.042,13.0,72.0836,34.5456,996.9,4.63,-999.0,yes,yes,no,300234011471050,BD2GI,AOML,SKOGAFOSS,North
2014-01-13T01:59:31Z,1389578371,2014,2,0,13.083,13.0,72.0836,34.5456,997.3,4.63,-999.0,yes,yes,no,300234011471050,BD2GI,AOML,SKOGAFOSS,North
2014-01-13T03:00:00Z,1389582000,2014,3,0,13.125,13.125,72.081,34.5644,997.7,4.64,-999.0,yes,yes,no,300234011471050,BD2GI,AOML,SKOGAFOSS,North
2014-01-13T04:00:28Z,1389585629,2014,4,0,13.167,13.125,72.081,34.5644,997.2,4.72,-999.0,yes,yes,no,300234011471050,BD2GI,AOML,SKOGAFOSS,North
2014-01-13T04:59:31Z,1389589171,2014,5,0,13.208,13.125,72.081,34.5644,997.6,4.69,-999.0,yes,yes,no,300234011471050,BD2GI,AOML,SKOGAFOSS,North
2014-01-13T06:00:00Z,1389592800,2014,6,0,13.25,13.25,72.0672,34.5968,997.6,4.64,-999.0,yes,yes,no,300234011471050,BD2GI,AOML,SKOGAFOSS,North
2014-01-13T07:00:28Z,1389596429,2014,7,0,13.292,13.25,72.0672,34.5968,997.7,4.59,-999.0,yes,yes,no,300234011471050,BD2GI,AOML,SKOGAFOSS,North
2014-01-13T07:59:31Z,1389599971,2014,8,0,13.333,13.25,72.0672,34.5968,998.4,4.15,-999.0,yes,yes,no,300234011471050,BD2GI,AOML,SKOGAFOSS,North
2014-01-13T09:00:00Z,1389603600,2014,9,0,13.375,13.375,72.048,34.6266,999.4,4.28,-999.0,yes,yes,no,300234011471050,BD2GI,AOML,SKOGAFOSS,North
2014-01-13T10:00:28Z,1389607229,2014,10,0,13.417,13.375,72.048,34.6266,999.5,4.29,-999.0,yes,yes,no,300234011471050,BD2GI,AOML,SKOGAFOSS,North
2014-01-13T10:59:31Z,1389610771,2014,11,0,13.458,13.375,72.048,34.6266,1000.3,4.33,-999.0,yes,yes,no,300234011471050,BD2GI,AOML,SKOGAFOSS,North
2014-01-13T12:00:00Z,1389614400,2014,12,0,13.5,13.5,72.0236,34.6804,1000.1,4.25,-999.0,yes,yes,no,300234011471050,BD2GI,AOML,SKOGAFOSS,North
2014-01-13T13:00:28Z,1389618029,2014,13,0,13.542,13.5,72.0236,34.6804,1001.5,4.38,-999.0,yes,yes,no,300234011471050,BD2GI,AOML,SKOGAFOSS,North
2014-01-13T13:59:31Z,1389621571,2014,14,0,13.583,13.5,72.0236,34.6804,1002.7,4.62,-999.0,yes,yes,no,300234011471050,BD2GI,AOML,SKOGAFOSS,North
2014-01-13T15:00:00Z,1389625200,2014,15,0,13.625,13.625,71.9952,34.7908,1002.4,4.7,-999.0,yes,yes,no,300234011471050,BD2GI,AOML,SKOGAFOSS,North
2014-01-13T16:00:28Z,1389628829,2014,16,0,13.667,13.625,71.9952,34.7908,1003.2,4.39,-999.0,yes,yes,no,300234011471050,BD2GI,AOML,SKOGAFOSS,North
2014-01-13T16:59:31Z,1389632371,2014,17,0,13.708,13.625,71.9952,34.7908,1003.8,4.33,-999.0,yes,yes,no,300234011471050,BD2GI,AOML,SKOGAFOSS,North
2014-01-13T18:00:00Z,1389636000,2014,18,0,13.75,13.75,71.9846,34.9108,1004.5,4.41,-999.0,yes,yes,no,300234011471050,BD2GI,AOML,SKOGAFOSS,North
2014-01-13T19:00:28Z,1389639629,2014,19,0,13.792,13.75,71.9846,34.9108,1005.2,4.69,-999.0,yes,yes,no,300234011471050,BD2GI,AOML,SKOGAFOSS,North
2014-01-13T19:59:31Z,1389643171,2014,20,0,13.833,13.75,71.9846,34.9108,1004.3,4.93,-999.0,yes,yes,no,300234011471050,BD2GI,AOML,SKOGAFOSS,North
2014-01-13T21:00:00Z,1389646800,2014,21,0,13.875,13.875,71.9962,35.0272,1006.0,4.95,-999.0,yes,yes,no,300234011471050,BD2GI,AOML,SKOGAFOSS,North
2014-01-13T22:00:28Z,1389650429,2014,22,0,13.917,13.875,71.9962,35.0272,1016.8,4.93,-999.0,yes,yes,no,300234011471050,BD2GI,AOML,SKOGAFOSS,North
2014-01-13T22:59:31Z,1389653971,2014,23,0,13.958,13.875,71.9962,35.0272,1016.7,4.93,-999.0,yes,yes,no,300234011471050,BD2GI,AOML,SKOGAFOSS,North
2014-01-14T00:00:00Z,1389657600,2014,0,0,14.0,14.0,72.0052,35.0864,1016.8,4.9,-999.0,yes,yes,no,300234011471050,BD2GI,AOML,SKOGAFOSS,North
2014-01-14T01:00:28Z,1389661229,2014,1,0,14.042,14.0,72.0052,35.0864,1016.7,4.87,-999.0,yes,yes,no,300234011471050,BD2GI,AOML,SKOGAFOSS,North
2014-01-14T01:59:31Z,1389664771,2014,2,0,14.083,14.0,72.0052,35.0864,1016.7,4.85,-999.0,yes,yes,no,300234011471050,BD2GI,AOML,SKOGAFOSS,North
2014-01-14T03:00:00Z,1389668400,2014,3,0,14.125,14.125,71.9984,35.1624,1016.5,4.84,-999.0,yes,yes,no,300234011471050,BD2GI,AOML,SKOGAFOSS,North
2014-01-14T04:00:28Z,1389672029,2014,4,0,14.167,14.125,71.9984,35.1624,1016.4,4.87,-999.0,yes,yes,no,300234011471050,BD2GI,AOML,SKOGAFOSS,North
2014-01-14T04:59:31Z,1389675571,2014,5,0,14.208,14.125,71.9984,35.1624,1016.4,4.92,-999.0,yes,yes,no,300234011471050,BD2GI,AOML,SKOGAFOSS,North
2014-01-14T06:00:00Z,1389679200,2014,6,0,14.25,14.25,71.9872,35.2148,1016.5,4.99,-999.0,yes,yes,no,300234011471050,BD2GI,AOML,SKOGAFOSS,North
2014-01-14T07:00:28Z,1389682829,2014,7,0,14.292,14.25,71.9872,35.2148,1016.6,4.97,-999.0,yes,yes,no,300234011471050,BD2GI,AOML,SKOGAFOSS,North
2014-01-14T07:59:31Z,1389686371,2014,8,0,14.333,14.25,71.9872,35.2148,1016.7,4.94,-999.0,yes,yes,no,300234011471050,BD2GI,AOML,SKOGAFOSS,North
2014-01-14T09:00:00Z,1389690000,2014,9,0,14.375,14.375,71.9776,35.1942,1016.8,4.95,-999.0,yes,yes,no,300234011471050,BD2GI,AOML,SKOGAFOSS,North
2014-01-14T10:00:28Z,1389693629,2014,10,0,14.417,14.375,71.9776,35.1942,1017.1,4.96,-999.0,yes,yes,no,300234011471050,BD2GI,AOML,SKOGAFOSS,North
2014-01-14T10:59:31Z,1389697171,2014,11,0,14.458,14.375,71.9776,35.1942,1017.2,4.96,-999.0,yes,yes,no,300234011471050,BD2GI,AOML,SKOGAFOSS,North
2014-01-14T12:00:00Z,1389700800,2014,12,0,14.5,14.5,71.9676,35.1656,1017.4,4.96,-999.0,yes,yes,no,300234011471050,BD2GI,AOML,SKOGAFOSS,North
2014-01-14T13:00:28Z,1389704429,2014,13,0,14.542,14.5,71.9676,35.1656,1017.6,4.96,-999.0,yes,yes,no,300234011471050,BD2GI,AOML,SKOGAFOSS,North
2014-01-14T13:59:31Z,1389707971,2014,14,0,14.583,14.5,71.9676,35.1656,1017.8,4.95,-999.0,yes,yes,no,300234011471050,BD2GI,AOML,SKOGAFOSS,North
2014-01-14T15:00:00Z,1389711600,2014,15,0,14.625,14.625,71.9496,35.1626,1018.3,4.94,-999.0,yes,yes,no,300234011471050,BD2GI,AOML,SKOGAFOSS,North
2014-01-14T16:00:28Z,1389715229,2014,16,0,14.667,14.625,71.9496,35.1626,1018.4,4.96,-999.0,yes,yes,no,300234011471050,BD2GI,AOML,SKOGAFOSS,North
2014-01-14T16:59:31Z,1389718771,2014,17,0,14.708,14.625,71.9496,35.1626,1018.6,4.94,-999.0,yes,yes,no,300234011471050,BD2GI,AOML,SKOGAFOSS,North
2014-01-14T18:00:00Z,1389722400,2014,18,0,14.75,14.75,71.9306,35.1546,1018.8,4.96,-999.0,yes,yes,no,300234011471050,BD2GI,AOML,SKOGAFOSS,North
2014-01-14T19:00:28Z,1389726029,2014,19,0,14.792,14.75,71.9306,35.1546,1019.2,4.91,-999.0,yes,yes,no,300234011471050,BD2GI,AOML,SKOGAFOSS,North
2014-01-14T19:59:31Z,1389729571,2014,20,0,14.833,14.75,71.9306,35.1546,1020.1,4.9,-999.0,yes,yes,no,300234011471050,BD2GI,AOML,SKOGAFOSS,North
2014-01-14T21:00:00Z,1389733200,2014,21,0,14.875,14.875,71.9386,35.1086,1020.8,4.94,-999.0,yes,yes,no,300234011471050,BD2GI,AOML,SKOGAFOSS,North
2014-01-14T22:00:28Z,1389736829,2014,22,0,14.917,14.875,71.9386,35.1086,1021.6,4.92,-999.0,yes,yes,no,300234011471050,BD2GI,AOML,SKOGAFOSS,North
2014-01-14T22:59:31Z,1389740371,2014,23,0,14.958,14.875,71.9386,35.1086,1022.1,4.9,-999.0,yes,yes,no,300234011471050,BD2GI,AOML,SKOGAFOSS,North
2014-01-15T00:00:00Z,1389744000,2014,0,0,15.0,15.0,71.9698,35.0884,1022.5,4.91,-999.0,yes,yes,no,300234011471050,BD2GI,AOML,SKOGAFOSS,North
2014-01-15T01:00:28Z,1389747629,2014,1,0,15.042,15.0,71.9698,35.0884,1022.8,4.91,-999.0,yes,yes,no,300234011471050,BD2GI,AOML,SKOGAFOSS,North
2014-01-15T01:59:31Z,1389751171,2014,2,0,15.083,15.0,71.9698,35.0884,1023.1,4.92,-999.0,yes,yes,no,300234011471050,BD2GI,AOML,SKOGAFOSS,North
2014-01-15T03:00:00Z,1389754800,2014,3,0,15.125,15.125,72.0034,35.1642,1023.5,4.89,-999.0,yes,yes,no,300234011471050,BD2GI,AOML,SKOGAFOSS,North
2014-01-15T04:00:28Z,1389758429,2014,4,0,15.167,15.125,72.0034,35.1642,1023.9,4.87,-999.0,yes,yes,no,300234011471050,BD2GI,AOML,SKOGAFOSS,North
2014-01-15T04:59:31Z,1389761971,2014,5,0,15.208,15.125,72.0034,35.1642,1024.3,4.86,-999.0,yes,yes,no,300234011471050,BD2GI,AOML,SKOGAFOSS,North
2014-01-15T06:00:00Z,1389765600,2014,6,0,15.25,15.25,72.0204,35.2742,1024.7,4.85,-999.0,yes,yes,no,300234011471050,BD2GI,AOML,SKOGAFOSS,North
2014-01-15T07:00:28Z,1389769229,2014,7,0,15.292,15.25,72.0204,35.2742,1025.1,4.84,-999.0,yes,yes,no,300234011471050,BD2GI,AOML,SKOGAFOSS,North
2014-01-15T07:59:31Z,1389772771,2014,8,0,15.333,15.25,72.0204,35.2742,1025.8,4.82,-999.0,yes,yes,no,300234011471050,BD2GI,AOML,SKOGAFOSS,North
2014-01-15T09:00:00Z,1389776400,2014,9,0,15.375,15.375,72.0438,35.316,1026.5,4.83,-999.0,yes,yes,no,300234011471050,BD2GI,AOML,SKOGAFOSS,North
2014-01-15T10:00:28Z,1389780029,2014,10,0,15.417,15.375,72.0438,35.316,1026.8,4.81,-999.0,yes,yes,no,300234011471050,BD2GI,AOML,SKOGAFOSS,North
2014-01-15T10:59:31Z,1389783571,2014,11,0,15.458,15.375,72.0438,35.316,1027.1,4.8,-999.0,yes,yes,no,300234011471050,BD2GI,AOML,SKOGAFOSS,North
2014-01-15T12:00:00Z,1389787200,2014,12,0,15.5,15.5,72.0728,35.3396,1027.3,4.8,-999.0,yes,yes,no,300234011471050,BD2GI,AOML,SKOGAFOSS,North
2014-01-15T13:00:28Z,1389790829,2014,13,0,15.542,15.5,72.0728,35.3396,1027.5,4.79,-999.0,yes,yes,no,300234011471050,BD2GI,AOML,SKOGAFOSS,North
2014-01-15T13:59:31Z,1389794371,2014,14,0,15.583,15.5,72.0728,35.3396,1027.9,4.77,-999.0,yes,yes,no,300234011471050,BD2GI,AOML,SKOGAFOSS,North
2014-01-15T15:00:00Z,1389798000,2014,15,0,15.625,15.625,72.0856,35.4034,1028.2,4.74,-999.0,yes,yes,no,300234011471050,BD2GI,AOML,SKOGAFOSS,North
2014-01-15T16:00:28Z,1389801629,2014,16,0,15.667,15.625,72.0856,35.4034,1028.3,4.73,-999.0,yes,yes,no,300234011471050,BD2GI,AOML,SKOGAFOSS,North
2014-01-15T16:59:31Z,1389805171,2014,17,0,15.708,15.625,72.0856,35.4034,1028.6,4.73,-999.0,yes,yes,no,300234011471050,BD2GI,AOML,SKOGAFOSS,North
2014-01-15T18:00:00Z,1389808800,2014,18,0,15.75,15.75,72.084,35.4872,1028.9,4.72,-999.0,yes,yes,no,300234011471050,BD2GI,AOML,SKOGAFOSS,North
2014-01-15T19:00:28Z,1389812429,2014,19,0,15.792,15.75,72.084,35.4872,1028.9,4.73,-999.0,yes,yes,no,300234011471050,BD2GI,AOML,SKOGAFOSS,North
2014-01-15T19:59:31Z,1389815971,2014,20,0,15.833,15.75,72.084,35.4872,1029.0,4.77,-999.0,yes,yes,no,300234011471050,BD2GI,AOML,SKOGAFOSS,North
2014-01-15T21:00:00Z,1389819600,2014,21,0,15.875,15.875,72.0746,35.5172,1029.1,4.8,-999.0,yes,yes,no,300234011471050,BD2GI,AOML,SKOGAFOSS,North
2014-01-15T22:00:28Z,1389823229,2014,22,0,15.917,15.875,72.0746,35.5172,1029.3,4.82,-999.0,yes,yes,no,300234011471050,BD2GI,AOML,SKOGAFOSS,North
2014-01-15T22:59:31Z,1389826771,2014,23,0,15.958,15.875,72.0746,35.5172,1029.5,4.86,-999.0,yes,yes,no,300234011471050,BD2GI,AOML,SKOGAFOSS,North
2014-01-16T00:00:00Z,1389830400,2014,0,0,16.0,16.0,72.0702,35.5144,1029.3,4.85,-999.0,yes,yes,no,300234011471050,BD2GI,AOML,SKOGAFOSS,North
2014-01-16T01:00:28Z,1389834029,2014,1,0,16.042,16.0,72.0702,35.5144,1029.1,4.84,-999.0,yes,yes,no,300234011471050,BD2GI,AOML,SKOGAFOSS,North
2014-01-16T01:59:31Z,1389837571,2014,2,0,16.083,16.0,72.0702,35.5144,1029.0,4.8,-999.0,yes,yes,no,300234011471050,BD2GI,AOML,SKOGAFOSS,North
2014-01-16T03:00:00Z,1389841200,2014,3,0,16.125,16.125,72.063,35.562,1028.9,4.77,-999.0,yes,yes,no,300234011471050,BD2GI,AOML,SKOGAFOSS,North
2014-01-16T04:00:28Z,1389844829,2014,4,0,16.167,16.125,72.063,35.562,1029.0,4.73,-999.0,yes,yes,no,300234011471050,BD2GI,AOML,SKOGAFOSS,North
2014-01-16T04:59:31Z,1389848371,2014,5,0,16.208,16.125,72.063,35.562,1028.9,4.7,-999.0,yes,yes,no,300234011471050,BD2GI,AOML,SKOGAFOSS,North
2014-01-16T06:00:00Z,1389852000,2014,6,0,16.25,16.25,72.0454,35.6432,1028.9,4.61,-999.0,yes,yes,no,300234011471050,BD2GI,AOML,SKOGAFOSS,North
2014-01-16T07:00:28Z,1389855629,2014,7,0,16.292,16.25,72.0454,35.6432,1028.8,4.47,-999.0,yes,yes,no,300234011471050,BD2GI,AOML,SKOGAFOSS,North
2014-01-16T07:59:31Z,1389859171,2014,8,0,16.333,16.25,72.0454,35.6432,1028.9,4.4,-999.0,yes,yes,no,300234011471050,BD2GI,AOML,SKOGAFOSS,North
2014-01-16T09:00:00Z,1389862800,2014,9,0,16.375,16.375,72.0308,35.706,1029.1,4.46,-999.0,yes,yes,no,300234011471050,BD2GI,AOML,SKOGAFOSS,North
2014-01-16T10:00:28Z,1389866429,2014,10,0,16.417,16.375,72.0308,35.706,1029.2,4.4,-999.0,yes,yes,no,300234011471050,BD2GI,AOML,SKOGAFOSS,North
2014-01-16T10:59:31Z,1389869971,2014,11,0,16.458,16.375,72.0308,35.706,1029.2,4.21,-999.0,yes,yes,no,300234011471050,BD2GI,AOML,SKOGAFOSS,North
2014-01-16T12:00:00Z,1389873600,2014,12,0,16.5,16.5,72.0146,35.7538,1028.8,3.75,-999.0,yes,yes,no,300234011471050,BD2GI,AOML,SKOGAFOSS,North
2014-01-16T13:00:28Z,1389877229,2014,13,0,16.542,16.5,72.0146,35.7538,1028.7,3.75,-999.0,yes,yes,no,300234011471050,BD2GI,AOML,SKOGAFOSS,North
2014-01-16T13:59:31Z,1389880771,2014,14,0,16.583,16.5,72.0146,35.7538,1028.5,3.7,-999.0,yes,yes,no,300234011471050,BD2GI,AOML,SKOGAFOSS,North
2014-01-16T15:00:00Z,1389884400,2014,15,0,16.625,16.625,71.9954,35.8176,1028.6,3.77,-999.0,yes,yes,no,300234011471050,BD2GI,AOML,SKOGAFOSS,North
2014-01-16T16:00:28Z,1389888029,2014,16,0,16.667,16.625,71.9954,35.8176,1028.4,4.0,-999.0,yes,yes,no,300234011471050,BD2GI,AOML,SKOGAFOSS,North
2014-01-16T16:59:31Z,1389891571,2014,17,0,16.708,16.625,71.9954,35.8176,1028.3,4.04,-999.0,yes,yes,no,300234011471050,BD2GI,AOML,SKOGAFOSS,North
2014-01-16T18:00:00Z,1389895200,2014,18,0,16.75,16.75,71.971,35.8772,1028.3,4.06,-999.0,yes,yes,no,300234011471050,BD2GI,AOML,SKOGAFOSS,North
2014-01-16T19:00:28Z,1389898829,2014,19,0,16.792,16.75,71.971,35.8772,1028.3,4.06,-999.0,yes,yes,no,300234011471050,BD2GI,AOML,SKOGAFOSS,North
2014-01-16T19:59:31Z,1389902371,2014,20,0,16.833,16.75,71.971,35.8772,1028.2,4.05,-999.0,yes,yes,no,300234011471050,BD2GI,AOML,SKOGAFOSS,North
2014-01-16T21:00:00Z,1389906000,2014,21,0,16.875,16.875,71.9546,35.9174,1028.0,3.98,-999.0,yes,yes,no,300234011471050,BD2GI,AOML,SKOGAFOSS,North
2014-01-16T22:00:28Z,1389909629,2014,22,0,16.917,16.875,71.9546,35.9174,1027.7,3.95,-999.0,yes,yes,no,300234011471050,BD2GI,AOML,SKOGAFOSS,North
2014-01-16T22:59:31Z,1389913171,2014,23,0,16.958,16.875,71.9546,35.9174,1027.6,3.87,-999.0,yes,yes,no,300234011471050,BD2GI,AOML,SKOGAFOSS,North
2014-01-17T00:00:00Z,1389916800,2014,0,0,17.0,17.0,71.9494,35.9624,1027.5,4.07,-999.0,yes,yes,no,300234011471050,BD2GI,AOML,SKOGAFOSS,North
2014-01-17T01:00:28Z,1389920429,2014,1,0,17.042,17.0,71.9494,35.9624,1027.6,4.26,-999.0,yes,yes,no,300234011471050,BD2GI,AOML,SKOGAFOSS,North
2014-01-17T01:59:31Z,1389923971,2014,2,0,17.083,17.0,71.9494,35.9624,1027.8,4.03,-999.0,yes,yes,no,300234011471050,BD2GI,AOML,SKOGAFOSS,North
2014-01-17T03:00:00Z,1389927600,2014,3,0,17.125,17.125,71.9354,36.041,1027.2,4.02,-999.0,yes,yes,no,300234011471050,BD2GI,AOML,SKOGAFOSS,North
2014-01-17T04:00:28Z,1389931229,2014,4,0,17.167,17.125,71.9354,36.041,1027.0,3.95,-999.0,yes,yes,no,300234011471050,BD2GI,AOML,SKOGAFOSS,North
2014-01-17T04:59:31Z,1389934771,2014,5,0,17.208,17.125,71.9354,36.041,1026.7,3.8,-999.0,yes,yes,no,300234011471050,BD2GI,AOML,SKOGAFOSS,North
2014-01-17T06:00:00Z,1389938400,2014,6,0,17.25,17.25,71.9222,36.1642,1026.5,3.76,-999.0,yes,yes,no,300234011471050,BD2GI,AOML,SKOGAFOSS,North